Content
SEND FEEDBACK

Daily
Averages
Monthly
Summary
United States of America

BELLEVILLE, MICHIGAN


Home > North America > United States > Michigan
Elevation: 780 feet     Latitude: 42 14N     Longitude: 083 32W

WEATHER
 
SELECT A DAY
Number of Records: 202,865;   Date Range: 1/1/95 - 9/18/14
 
SHARE

PRINT THIS DATA

[ ← Previous Day ]
WEATHER ALMANAC - FEBRUARY 9, 2013
[ Next Day → ]
[ °C ]   °F
Weather ElementAverageHighLow
Temperature21.1 °F30.9 °F (1:53 pm)10 °F (7:53 am)
Dewpoint13.8 °F18 °F (10:53 am)6.1 °F (7:53 am)
Humidity74.1 %85 % (9:53 pm)54 % (1:53 pm)
Barometer30.40 in30.47 in (8:53 am)30.31 in (11:53 pm)
Wind Speed5 mph10.4 mph (2:53 am)
Weather ElementAverage
Visibility9.3 mi
Wind DirectionSSE (145.4 °)

Weather ElementTotal
Precipitation0.21 in
Heating Degree Days44.6 (Base 65)
Averaged from 24 records on February 9, 2013
WEATHER CONDITIONS BREAKOUT
WIND DIRECTION BREAKOUT
WEATHER BY HOUR - FEBRUARY 9, 2013
[ °C ]   °F
Local TimeTemperatureDewpointHumidityBarometerVisibilityWind DirectionWind SpeedGust SpeedPrecipitationEventsConditions
12:53 AM16.0 °F10.9 °F81 %30.38 in9.0 miNNW (340°)4.6 mphSnowLight Snow
1:53 AM15.1 °F10.0 °F80 %30.39 in9.0 miNW (320°)8.1 mphSnowLight Snow
2:53 AM16.0 °F10.0 °F77 %30.39 in9.0 miNNW (330°)10.4 mphSnowLight Snow
3:53 AM15.1 °F9.0 °F77 %30.40 in9.0 miNW (320°)9.2 mphSnowLight Snow
4:53 AM12.9 °F8.1 °F81 %30.42 in9.0 miNNW (340°)4.6 mphSnowLight Snow
5:53 AM14.0 °F8.1 °F77 %30.42 in9.0 miCalmSnowLight Snow
6:53 AM12.0 °F7.0 °F80 %30.44 in9.0 miCalmSnowLight Snow
7:53 AM10.0 °F6.1 °F84 %30.45 in9.0 miNE (50°)3.5 mphClear
8:53 AM14.0 °F10.0 °F84 %30.47 in10.0 miCalmClear
9:53 AM19.9 °F15.1 °F81 %30.46 in10.0 miCalmClear
10:53 AM24.1 °F18.0 °F77 %30.46 in10.0 miCalmClear
11:53 AM30.0 °F17.1 °F59 %30.45 in10.0 miCalm0.08 inClear
12:53 PM30.0 °F17.1 °F59 %30.43 in10.0 miSouth (170°)4.6 mph0.07 inClear
1:53 PM30.9 °F16.0 °F54 %30.42 in10.0 miSouth (180°)5.8 mph0.04 inClear
2:53 PM30.9 °F16.0 °F54 %30.39 in6.0 miSouth (180°)8.1 mph0.01 inHaze
3:53 PM30.9 °F18.0 °F59 %30.38 in10.0 miSSE (150°)8.1 mph0.01 inClear
4:53 PM30.0 °F18.0 °F61 %30.37 in10.0 miSSE (160°)6.9 mphClear
5:53 PM27.0 °F18.0 °F69 %30.37 in10.0 miSE (140°)6.9 mphClear
6:53 PM25.0 °F17.1 °F72 %30.38 in10.0 miSE (140°)6.9 mphClear
7:53 PM23.0 °F18.0 °F81 %30.35 in10.0 miSE (130°)6.9 mphClear
8:53 PM21.0 °F16.0 °F81 %30.35 in10.0 miSE (130°)5.8 mphClear
9:53 PM19.9 °F16.0 °F85 %30.33 in10.0 miSE (140°)6.9 mphClear
10:53 PM19.9 °F16.0 °F85 %30.32 in8.0 miSE (130°)5.8 mphClear
11:53 PM19.9 °F15.1 °F81 %30.31 in6.0 miSE (140°)5.8 mphHaze
Hourly data recorded from KYIP, located miles away from Belleville, Michigan







STORIES FROM OUR PARTNERS